Regional Weather Roundup
Issued by NWS

Home | Current Version | Previous Version | Text Only | Print | Product List | Glossary Off
Versions: 1 2 3 4 5 6 7 8 9 10 11 12 13 14 15 16 17 18 19 20 21 22 23 24 25 26 27 28 29 30 31 32 33 34 35 36 37 38 39 40 41 42 43 44 45 46 47 48 49 50

000
ASUS43 KLOT 050513
RWRIL

ILLINOIS REGIONAL WEATHER ROUNDUP
NATIONAL WEATHER SERVICE CHICAGO/ROMEOVILLE IL
1200 AM CDT SAT SEP 05 2015

NOTE: "FAIR" INDICATES FEW OR NO CLOUDS BELOW 12,000 FEET WITH NO
SIGNIFICANT WEATHER AND/OR OBSTRUCTIONS TO VISIBILITY.

* THESE STATIONS ARE NOT UNDER NWS QUALITY CONTROL. THEY ALSO MAY NOT
  REPORT WEATHER SUCH AS PRECIPITATION OR FOG.

ILZ001-002-007-009-015-016-024-050600-
NORTHWEST ILLINOIS

CITY           SKY/WX    TMP DP  RH WIND       PRES   REMARKS
MOLINE         CLEAR     76  69  79 CALM      30.01S
STERLING*      PTCLDY    75  72  88 SE3       30.01R
SAVANNA*       CLEAR     75  71  87 NE5       30.01S
$$

ILZ003-004-008-010-011-017-018-050600-
NORTH CENTRAL ILLINOIS

CITY           SKY/WX    TMP DP  RH WIND       PRES   REMARKS
ROCKFORD       PTCLDY    71  66  84 E3        30.06R
FREEPORT*      PTCLDY    71  69  93 SE7       30.06S
ROCHELLE*      PTCLDY    71  67  87 SE6       30.05S
DE KALB*       CLEAR     69  67  93 E5        30.07S FOG
PERU*          MOCLDY    77  66  68 CALM      30.04S
$$

ILZ005-006-012>014-019>023-050600-
NORTHEAST ILLINOIS

CITY           SKY/WX    TMP DP  RH WIND       PRES   REMARKS
CHICAGO-OHARE  PTCLDY    71  67  87 SE5       30.05F
CHICAGO-MIDWAY PTCLDY    74  67  78 E3        30.05F
AURORA         PTCLDY    71  67  87 E7        30.06F
LANSING*       PTCLDY    70  68  92 CALM      30.06S
JOLIET*        CLEAR     72  69  89 E5        30.06R
WAUKEGAN       PTCLDY    66  65  96 CALM      30.06S
DUPAGE AIRPORT MOCLDY    71  66  84 E5        30.05S
KANKAKEE*      CLEAR     70  68  93 CALM      30.05F
WHEELING       NOT AVBL
MORRIS*        CLEAR     71  68  90 CALM      30.04S
ROMEOVILLE*    PTCLDY    70  66  88 CALM      30.06S
NORTHERLY ISL    N/A     71  68  90 E1          N/A
$$

LMZ740>746-050600-
SOUTHERN LAKE MICHIGAN

STATION/POSITION SKY/WX   TEMP    WIND        PRES    VSBY  WAVE
                          AIR SEA DIR/SP/G                  HT/PER
                          (F)     (DEG/KT/KT) (MB)    (MI)  (FT/S)
SOUTHERN BUOY              69 71   CALM  /  2 1017.6S
WILMETTE HARBOR            71 71  300/  2/  4   N/A           1/ 3
HARRISON CRIB              71     130/  5/  5   N/A
BURNHAM HARBOR             71      CALM  /  3   N/A
CALUMET HARBOR             71      30/  1/  3   N/A
MICHIGAN CITY              71     130/  5/  7   N/A
MICHIGAN CITY 6N           72 74  140/  4/  4   N/A           1/ 4
ST. JOSEPH                 70 75  190/  6/  8   N/A           1
$$

ILZ025>027-034>036-040-047-049-050-058-095>099-050600-
WEST-CENTRAL ILLINOIS

CITY           SKY/WX    TMP DP  RH WIND       PRES   REMARKS
QUINCY         CLEAR     78  70  76 S7        30.03R HX  80
GALESBURG*     CLEAR     74  67  78 S5        30.03S
MACOMB*        CLEAR     76  69  79 S5        30.05S
JACKSONVILLE*  CLEAR     78  71  79 SE3       30.05R
PITTSFIELD*    CLEAR     74  70  86 CALM      30.05S
$$

ILZ028>032-037-038-041>044-048-051>054-059>061-050600-
CENTRAL ILLINOIS

CITY           SKY/WX    TMP DP  RH WIND       PRES   REMARKS
PONTIAC        MOCLDY    73  68  86 S7        30.06R
BLOOMINGTON    CLEAR     73  68  84 S9        30.07S
DECATUR        CLEAR     78  60  53 S10       30.04F
PEORIA         CLEAR     78  66  66 S5        30.04R HX  80
LACON*         PTCLDY    76  68  74 S3        30.03R
LINCOLN*       CLEAR     76  67  75 S6        30.05S
SPRINGFIELD    CLEAR     78  68  71 SE14      30.06R HX  80
TAYLORVILLE    PTCLDY    73  66  78 SE9       30.06F
$$

ILZ033-039-045-046-055>057-062-063-050600-
EAST-CENTRAL ILLINOIS

CITY           SKY/WX    TMP DP  RH WIND       PRES   REMARKS
CHAMPAIGN      MOCLDY    68  65  90 CALM      30.05F
RANTOUL*       PTCLDY    70  66  87 CALM      30.05F
MATTOON        MOCLDY    72  65  78 S7        30.04F
PARIS*         CLOUDY    70  68  94 CALM      30.05F
$$

ILZ079-100>102-050600-
SOUTHWEST ILLINOIS

CITY           SKY/WX    TMP DP  RH WIND       PRES   REMARKS
ALTON          CLEAR     71  70  96 CALM      30.05S
BELLEVILLE     CLEAR     74  74 100 CALM      30.04S FOG
CAHOKIA*       CLEAR     76  70  82 CALM      30.04R
SPARTA*        CLEAR     73  72  94 CALM      30.06S
$$

ILZ064>066-069>071-074>076-080>082-084>086-088>090-092>094-050600-
SOUTH-CENTRAL ILLINOIS

CITY           SKY/WX    TMP DP  RH WIND       PRES   REMARKS
CARBONDALE     CLEAR     71  69  93 CALM      30.05S FOG
CAIRO*         CLEAR     69  69 100 CALM      30.05R FOG
EFFINGHAM*     PTCLDY    73  62  68 CALM      30.09F
MARION         CLEAR     73  72  94 CALM      30.06S
MT. VERNON     CLEAR     70  63  78 CALM      30.07S
CENTRALIA*     CLEAR     71  71  99 CALM      30.05S FOG
SALEM*         CLEAR     73  70  91 CALM      30.06S
METROPOLIS*    CLEAR     71  71 100 CALM      30.05S FOG
$$

ILZ067-068-072-073-078-083-087-091-050600-
SOUTHEAST ILLINOIS

CITY           SKY/WX    TMP DP  RH WIND       PRES   REMARKS
LAWRENCEVILLE  CLOUDY    76  70  82 NE6       30.06S
FLORA*         CLOUDY    73  69  89 N9        30.07S
FAIRFIELD*     CLEAR     71  69  93 CALM      30.05F
HARRISBURG*    CLEAR     71  69  93 CALM      30.06S
ROBINSON*      CLOUDY    71  66  83 NW5       30.07F
CARMI*         PTCLDY    70  69  95 CALM      30.05S
$$

ABBREVIATIONS USED IN REMARKS
   TC - TEMPERATURE IN CELSIUS
  WCI - WIND CHILL INDEX
   HX - HEAT INDEX
  VSB - VISIBILITY
$$



USA.gov is the U.S. government's official web portal to all federal, state and local government web resources and services.